Location: Atherton
(17.2661°S, 145.4859°E)
Time: 18:44:35
(UTC+10:00)

ACS3 Solar Sail - Pass Details

Date: 27 May 2025
Orbit: 920 x 1019 km, 97.5° (Epoch: 20 June)

Event Time Altitude Azimuth Distance (km) Brightness Sun altitude
Rises 05:11:57 0° 18° (NNE) 3,549 5.2 -20.5°
Reaches altitude 10° 05:14:22 10° 21° (NNE) 2,618 4.5 -19.9°
Maximum altitude 05:20:10 67° 103° (ESE) 1,012 2.0 -18.6°
Drops below altitude 10° 05:26:09 10° 184° (S) 2,695 3.9 -17.3°
Sets 05:28:39 0° 186° (S) 3,661 4.6 -16.7°
